User: anonymous   Login
Location: Cronhütte
(48.9135°N, 9.6869°E)
Time: 13:02:32
(UTC+00:00)
Language:

CZ-2C R/B - Orbit

View from above orbital plane
View from above orbital plane
View from above satellite
View from above satellite

Ground track
Ground track

The orbit data is extracted from the following two-line orbital elements,

1 28480U 04046B   24205.84651026  .00000603  00000-0  24029-3 0  9990
2 28480  98.1630 147.6152 0141742 110.7268 250.9170 14.26410191 23829
Epoch (UTC): 23 July 2024 20:18:58
Eccentricity: 0.0141742
inclination: 98.1630°
perigee height: 702 km
apogee height: 905 km
right ascension of ascending node: 147.6152°
argument of perigee: 110.7268°
revolutions per day: 14.26410191
mean anomaly at epoch: 250.9170°
orbit number at epoch: 2382

The dashed part of the orbit path shows where the satellite is in the earth's shadow,  

DLR